UAL1578 KLAX-KPHX

Flight info

Callsign UAL1578
Flight time N/A
Altitude 35000
Route PNDAH2 TCATE BZA HOGGZ HYDRR1
Aircraft B737/M-SDE2E3FGHIRWXY/LB1

Departure

Time 2026-04-20 15:40
Airport Los Angeles International Airport (KLAX)

Arrival

Time N/A
Airport Phoenix Sky Harbor International Airport (KPHX)
Time Latitude Longitude Altitude Speed Heading
2026-04-20 15:30 33.94155 -118.39895 92 ft 0 kts 284°
2026-04-20 15:33 33.94154 -118.39891 91 ft 3 kts 284°
2026-04-20 15:34 33.94150 -118.39870 92 ft 3 kts 284°
2026-04-20 15:34 33.94146 -118.39853 91 ft 0 kts 254°
2026-04-20 15:35 33.94145 -118.39854 91 ft 0 kts 253°
2026-04-20 15:35 33.94145 -118.39856 91 ft 0 kts 252°
2026-04-20 15:35 33.94138 -118.39855 94 ft 3 kts 171°
2026-04-20 15:35 33.94103 -118.39848 92 ft 6 kts 171°
2026-04-20 15:36 33.94065 -118.39841 92 ft 6 kts 171°
2026-04-20 15:36 33.94027 -118.39834 92 ft 5 kts 171°
2026-04-20 15:36 33.93985 -118.39817 94 ft 9 kts 160°
2026-04-20 15:36 33.93921 -118.39768 94 ft 12 kts 121°
2026-04-20 15:37 33.93916 -118.39667 94 ft 13 kts 83°
2026-04-20 15:37 33.93928 -118.39540 94 ft 17 kts 83°
2026-04-20 15:37 33.93940 -118.39396 95 ft 17 kts 87°
2026-04-20 15:37 33.93951 -118.39257 92 ft 17 kts 83°
2026-04-20 15:38 33.93969 -118.39088 95 ft 23 kts 83°
2026-04-20 15:38 33.93989 -118.38900 93 ft 23 kts 83°
2026-04-20 15:38 33.94010 -118.38703 94 ft 23 kts 83°
2026-04-20 15:38 33.94031 -118.38513 94 ft 23 kts 83°
2026-04-20 15:39 33.94028 -118.38333 97 ft 22 kts 131°
2026-04-20 15:39 33.93949 -118.38375 98 ft 12 kts 262°
2026-04-20 15:39 33.93936 -118.38477 98 ft 22 kts 262°
2026-04-20 15:39 33.93876 -118.39083 94 ft 121 kts 263°
2026-04-20 15:40 33.93749 -118.40401 251 ft 186 kts 263°
2026-04-20 15:40 33.93562 -118.42082 921 ft 211 kts 261°
2026-04-20 15:40 33.93368 -118.43856 1667 ft 223 kts 263°
2026-04-20 15:40 33.93176 -118.45849 2132 ft 251 kts 262°
2026-04-20 15:41 33.92532 -118.47842 2824 ft 268 kts 231°
2026-04-20 15:41 33.91076 -118.49332 3590 ft 282 kts 216°
2026-04-20 15:41 33.89689 -118.50974 4841 ft 284 kts 229°
2026-04-20 15:41 33.88309 -118.52678 6112 ft 286 kts 212°
2026-04-20 15:42 33.86469 -118.53345 7588 ft 273 kts 182°
2026-04-20 15:42 33.84623 -118.53006 8984 ft 270 kts 162°
2026-04-20 15:42 33.82949 -118.51915 10067 ft 280 kts 142°
2026-04-20 15:42 33.81504 -118.50253 10696 ft 301 kts 137°
2026-04-20 15:43 33.79983 -118.48326 10935 ft 334 kts 133°
2026-04-20 15:43 33.78610 -118.45968 11556 ft 351 kts 124°
2026-04-20 15:43 33.77368 -118.43415 12471 ft 356 kts 122°
2026-04-20 15:43 33.76145 -118.40803 13459 ft 360 kts 122°
2026-04-20 15:44 33.74909 -118.38156 14334 ft 366 kts 122°
2026-04-20 15:44 33.73647 -118.35472 15143 ft 372 kts 122°
2026-04-20 15:44 33.72351 -118.32743 15935 ft 379 kts 123°
2026-04-20 15:44 33.71030 -118.29981 16730 ft 384 kts 123°
2026-04-20 15:45 33.69698 -118.27214 17512 ft 390 kts 123°
2026-04-20 15:45 33.68327 -118.24376 18265 ft 396 kts 123°
2026-04-20 15:45 33.66928 -118.21488 18914 ft 402 kts 123°
2026-04-20 15:45 33.65513 -118.18574 19568 ft 407 kts 123°
2026-04-20 15:46 33.64080 -118.15625 20234 ft 412 kts 123°
2026-04-20 15:46 33.62628 -118.12641 20905 ft 416 kts 123°
2026-04-20 15:46 33.61158 -118.09623 21559 ft 421 kts 123°
2026-04-20 15:46 33.59670 -118.06571 22182 ft 426 kts 123°
2026-04-20 15:47 33.58165 -118.03485 22778 ft 431 kts 123°
2026-04-20 15:47 33.56641 -118.00364 23381 ft 436 kts 123°
2026-04-20 15:47 33.55099 -117.97208 23926 ft 441 kts 123°
2026-04-20 15:47 33.53543 -117.94025 24465 ft 444 kts 123°
2026-04-20 15:48 33.51979 -117.90828 25018 ft 446 kts 123°
2026-04-20 15:48 33.50403 -117.87611 25550 ft 449 kts 123°
2026-04-20 15:48 33.48816 -117.84375 26059 ft 452 kts 123°
2026-04-20 15:48 33.47217 -117.81116 26554 ft 455 kts 123°
2026-04-20 15:49 33.45604 -117.77834 27038 ft 458 kts 123°
2026-04-20 15:49 33.43982 -117.74535 27520 ft 461 kts 123°
2026-04-20 15:49 33.42350 -117.71218 27999 ft 463 kts 123°
2026-04-20 15:49 33.40708 -117.67884 28446 ft 467 kts 123°
2026-04-20 15:50 33.39054 -117.64530 28879 ft 470 kts 123°
2026-04-20 15:50 33.37411 -117.61201 29313 ft 472 kts 123°
2026-04-20 15:50 33.35735 -117.57809 29737 ft 475 kts 123°
2026-04-20 15:50 33.34049 -117.54398 30211 ft 476 kts 123°
2026-04-20 15:51 33.32366 -117.50996 30751 ft 474 kts 123°
2026-04-20 15:51 33.30693 -117.47616 31310 ft 471 kts 123°
2026-04-20 15:51 33.29025 -117.44252 31762 ft 471 kts 122°
2026-04-20 15:51 33.27350 -117.40878 32145 ft 473 kts 122°
2026-04-20 15:52 33.25672 -117.37500 32600 ft 472 kts 122°
2026-04-20 15:52 33.24002 -117.34140 33056 ft 471 kts 122°
2026-04-20 15:52 33.22323 -117.30767 33044 ft 473 kts 122°
2026-04-20 15:53 33.17303 -117.20699 33079 ft 468 kts 122°
2026-04-20 15:53 33.13970 -117.14029 33046 ft 468 kts 122°
2026-04-20 15:54 33.10632 -117.07363 33049 ft 468 kts 122°
2026-04-20 15:54 33.07290 -117.00700 33050 ft 468 kts 122°
2026-04-20 15:55 33.03964 -116.94031 33155 ft 467 kts 121°
2026-04-20 15:55 33.00798 -116.87354 33269 ft 466 kts 120°
2026-04-20 15:56 32.97830 -116.80453 33174 ft 469 kts 117°
2026-04-20 15:56 32.95164 -116.73337 33127 ft 471 kts 113°
2026-04-20 15:57 32.92894 -116.66047 33264 ft 469 kts 109°